Regional Weather Roundup
Issued by NWS Portland, ME

Home | Current Version | Previous Version | Text Only | Print | Product List | Glossary On
Versions: 1 2 3 4 5 6 7 8 9 10 11 12 13 14 15 16 17 18 19 20 21 22 23 24 25 26 27 28 29 30 31 32 33 34 35 36 37 38 39 40 41 42 43 44 45 46 47 48 49 50
000
ASUS41 KGYX 240910
RWRGYX
WEATHER ROUNDUP FOR MAINE AND NEW HAMPSHIRE
NATIONAL WEATHER SERVICE GRAY ME
400 AM EST FRI FEB 24 2017

MEZ002-005-006-010-012-015-018-020-021-024-026-027-029-241000-
MAINE

CITY           SKY/WX    TMP DP  RH WIND       PRES   REMARKS
PORTLAND       PTCLDY    46  44  93 SW6       29.86R
SANFORD        LGT RAIN  41  41 100 W3        29.88R FOG
BAR HARBOR     FOG       36  36 100 CALM      29.86R VSB 1
WISCASSET      CLOUDY    35  33  92 CALM      29.86S
ROCKLAND       PTCLDY    42  40  92 CALM      29.85R
FRYEBURG       CLOUDY    39  37  92 CALM      29.85S
LEWISTONAUBURN CLOUDY    35  34  96 CALM      29.85S
AUGUSTA        PTCLDY    43  38  82 NW3       29.85R
WATERVILLE     PTCLDY    39  37  93 CALM      29.83R
BANGOR         CLOUDY    37  36  96 NW8       29.85R
GREENVILLE       N/A     43  38  82 VRB7      29.80R
MILLINOCKET    CLOUDY    47  37  68 VRB3      29.84R
HOULTON        CLOUDY    44  38  79 S7        29.81R
PRESQUE ISLE   PTCLDY    42  36  79 W9        29.79R
FRENCHVILLE    CLOUDY    40  34  79 NW12      29.75R
CARIBOU        PTCLDY    40  35  83 W6        29.77R
$$

NHZ002-005-008-009-011-012-014-241000-
NEW HAMPSHIRE

CITY           SKY/WX    TMP DP  RH WIND       PRES   REMARKS
PORTSMOUTH     CLOUDY    48  46  93 W3        29.86R
ROCHESTER      PTCLDY    50  45  83 VRB5      29.87R
NASHUA         CLOUDY    42  40  92 CALM      29.90R
MANCHESTER     CLOUDY    42  38  85 N3        29.88R
CONCORD        PTCLDY    36  34  92 NE3       29.89R
LACONIA        PTCLDY    41  40  96 MISG      29.89R
PLYMOUTH       FAIR      30  30  98 CALM      29.89R
BERLIN         PTCLDY    37  33  85 CALM      29.87R
WHITEFIELD     MOCLDY    32  29  88 CALM      29.89R
JAFFREY        FOG       36  36 100 CALM      29.91R VSB 1/2
KEENE          FOG       34  34 100 S7        29.93R VSB 1/4
LEBANON        CLOUDY    34  33  96 CALM      29.89R
MT WASHINGTON  FOG       30  30 100 W63G77      N/A  VSB 1/8 WCI  10
$$

VTZ005-007-008-241000-
VERMONT

CITY           SKY/WX    TMP DP  RH WIND       PRES   REMARKS
ST JOHNSBURY     N/A     31  31 100 MISG      29.88R
MONTPELIER     CLOUDY    39  38  96 CALM      29.92R
BURLINGTON     CLOUDY    43  37  79 E6        29.89F
$$

MAZ007-012-024-CTZ003-RIZ002-NYZ038-NYZ072-241000-
SOUTHERN NEW ENGLAND AND NY

CITY           SKY/WX    TMP DP  RH WIND       PRES   REMARKS
BOSTON         PTCLDY    47  47 100 CALM      29.91R
WORCESTER      MOCLDY    51  47  86 SW10      29.90R
NANTUCKET      CLEAR     45  44  97 SW10      29.96R
PROVIDENCE     CLEAR     47  44  90 S3        29.92S
HARTFORD       MOCLDY    47  46  97 CALM      29.91R FOG
ALBANY         CLOUDY    46  42  86 CALM      29.90S
NEW YORK CITY  PTCLDY    53  47  79 S7        29.91S
$$

ANZ081-ANZ082-ANZ150-NHZ014-MEZ023>029-241000-
COASTAL MARINE OBSERVATIONS

STATION/POSITION TIME  TEMP    WIND        PRES    WAVE
                       AIR SEA DIR/SP/G            HT/PER
                 (UTC) (F)     (DEG/KT/KT) (MB)    (FT/S)
MOUNT DESERT ROC 0900   44                 1011.2R
MATINICUS ROCK   0900   44     250/ 12/ 13 1010.7R
ISLE OF SHOALS   0900   53     220/ 14/ 16 1011.6R
JEFFREYS LEDGE   0806      43                N/A     4/11
CASHES LEDGE BUO 0850   45 43              1011.7R   5/11
GEORGES BANK BUO 0850   47 44              1016.3R   5/10
$$

.............KEY..............
   WCI - WIND CHILL
   TC  - TEMPERATURE IN CELSIUS
   VSB - VISIBILITY IN MILES
   HX  - HEAT INDEX
   FAIR- INDICATES FEW OR NO CLOUDS BELOW 12,000 FT, WITH NO
         SIGNIFICANT WEATHER AND/OR OBSTRUCTIONS TO VISIBILITY.






USA.gov is the U.S. government's official web portal to all federal, state and local government web resources and services.